• In Hungary
  • List of Countries
  • For 7 days
  • Water Temperature
  • Satellite Maps
  • Weather Map
  • News
  • Weather Widgets
  • user-avatar
    Login

    Hourly Weather Ugolnoe

    Today, 14 November, Wednesday

    Time Temperature Precipitation Wind Pressure Humidity
    00:00 -7°C° 0 mm 2 mps 771 mmHg 41%
    01:00 -7°C° 0 mm 2 mps 771 mmHg 42%
    02:00 -7°C° 0 mm 2 mps 770 mmHg 41%
    03:00 -7°C° 0 mm 2 mps 770 mmHg 41%
    04:00 -7°C° 0 mm 2 mps 770 mmHg 40%
    05:00 -8°C° 0 mm 2 mps 770 mmHg 39%
    06:00 -8°C° 0 mm 2 mps 770 mmHg 39%
    07:00 -8°C° 0 mm 2 mps 769 mmHg 39%
    08:00 -7°C° 0 mm 2 mps 769 mmHg 36%
    09:00 -6°C° 0 mm 2 mps 769 mmHg 33%
    10:00 -5°C° 0 mm 2 mps 769 mmHg 29%
    11:00 -4°C° 0 mm 2 mps 769 mmHg 27%
    12:00 -3°C° 0 mm 2 mps 769 mmHg 24%
    13:00 -2°C° 0 mm 2 mps 769 mmHg 22%
    14:00 -1°C° 0 mm 1 mps 769 mmHg 23%
    15:00 -1°C° 0 mm 1 mps 768 mmHg 24%
    16:00 -1°C° 0 mm 1 mps 768 mmHg 25%
    17:00 -2°C° 0 mm 1 mps 768 mmHg 26%
    18:00 -2°C° 0 mm 1 mps 768 mmHg 27%
    19:00 -3°C° 0 mm 1 mps 768 mmHg 28%
    20:00 -3°C° 0 mm 1 mps 768 mmHg 29%
    21:00 -3°C° 0 mm 1 mps 768 mmHg 29%
    22:00 -4°C° 0 mm 1 mps 768 mmHg 30%
    23:00 -4°C° 0 mm 1 mps 768 mmHg 31%

    Tomorrow, 15 November, Thursday

    Time Temperature Precipitation Wind Pressure Humidity
    00:00 -4°C° 0 mm 1 mps 768 mmHg 32%
    01:00 -4°C° 0 mm 1 mps 768 mmHg 33%
    02:00 -4°C° 0 mm 1 mps 768 mmHg 34%
    03:00 -4°C° 0 mm 1 mps 768 mmHg 34%
    04:00 -6°C° 0 mm 1 mps 768 mmHg 35%
    05:00 -6°C° 0 mm 1 mps 768 mmHg 36%
    06:00 -6°C° 0 mm 1 mps 768 mmHg 36%
    07:00 -6°C° 0 mm 1 mps 768 mmHg 37%
    08:00 -4°C° 0 mm 1 mps 768 mmHg 35%
    09:00 -5°C° 0 mm 2 mps 768 mmHg 33%
    10:00 -4°C° 0 mm 2 mps 769 mmHg 31%
    11:00 -3°C° 0 mm 2 mps 769 mmHg 29%
    12:00 -2°C° 0 mm 2 mps 769 mmHg 27%
    13:00 +1°C° 0 mm 1 mps 769 mmHg 24%
    14:00 0°C° 0 mm 1 mps 769 mmHg 26%
    15:00 0°C° 0 mm 1 mps 769 mmHg 28%
    16:00 -1°C° 0 mm 1 mps 769 mmHg 31%
    17:00 -3°C° 0 mm 2 mps 769 mmHg 32%
    18:00 -4°C° 0 mm 2 mps 769 mmHg 34%
    19:00 -4°C° 0 mm 2 mps 769 mmHg 36%
    20:00 -5°C° 0 mm 2 mps 769 mmHg 37%
    21:00 -5°C° 0 mm 2 mps 769 mmHg 38%
    22:00 -5°C° 0 mm 2 mps 769 mmHg 39%
    23:00 -5°C° 0 mm 2 mps 769 mmHg 39%

    Day after tomorrow, 16 November, Friday

    Time Temperature Precipitation Wind Pressure Humidity
    00:00 -3°C° 0 mm 1 mps 770 mmHg 40%
    01:00 -3°C° 0 mm 1 mps 770 mmHg 40%
    02:00 -4°C° 0 mm 1 mps 770 mmHg 40%
    03:00 -4°C° 0 mm 1 mps 770 mmHg 41%
    04:00 -4°C° 0 mm 1 mps 770 mmHg 41%
    05:00 -4°C° 0 mm 1 mps 770 mmHg 41%
    06:00 -4°C° 0 mm 1 mps 770 mmHg 41%
    07:00 -4°C° 0 mm 1 mps 770 mmHg 41%
    08:00 -3°C° 0 mm 1 mps 770 mmHg 39%
    09:00 -2°C° 0 mm 1 mps 770 mmHg 36%
    10:00 -1°C° 0 mm 1 mps 770 mmHg 34%
    11:00 0°C° 0 mm 1 mps 770 mmHg 32%
    12:00 +1°C° 0 mm 1 mps 770 mmHg 30%
    13:00 +2°C° 0 mm 1 mps 770 mmHg 28%
    14:00 +1°C° 0 mm 1 mps 770 mmHg 30%
    15:00 0°C° 0 mm 1 mps 770 mmHg 32%
    16:00 0°C° 0 mm 1 mps 769 mmHg 35%
    17:00 -3°C° 0 mm 2 mps 769 mmHg 36%
    18:00 -3°C° 0 mm 2 mps 769 mmHg 38%
    19:00 -4°C° 0 mm 2 mps 769 mmHg 40%
    20:00 -4°C° 0 mm 2 mps 769 mmHg 41%
    21:00 -4°C° 0 mm 2 mps 769 mmHg 41%
    22:00 -3°C° 0 mm 1 mps 768 mmHg 42%
    23:00 -3°C° 0 mm 1 mps 768 mmHg 42%

    17 November, Saturday

    Time Temperature Precipitation Wind Pressure Humidity
    00:00 -3°C° 0 mm 1 mps 768 mmHg 43%
    01:00 -3°C° 0 mm 1 mps 768 mmHg 43%
    02:00 -4°C° 0 mm 1 mps 768 mmHg 43%
    03:00 -4°C° 0 mm 1 mps 767 mmHg 43%
    04:00 -4°C° 0 mm 1 mps 767 mmHg 43%
    05:00 -4°C° 0 mm 1 mps 767 mmHg 42%
    06:00 -4°C° 0 mm 1 mps 766 mmHg 42%
    07:00 -4°C° 0 mm 1 mps 766 mmHg 41%
    08:00 -3°C° 0 mm 1 mps 766 mmHg 38%
    09:00 -3°C° 0 mm 1 mps 766 mmHg 35%
    10:00 -2°C° 0 mm 1 mps 765 mmHg 32%
    11:00 -3°C° 0 mm 2 mps 765 mmHg 29%
    12:00 -2°C° 0 mm 2 mps 764 mmHg 26%
    13:00 -1°C° 0 mm 2 mps 764 mmHg 23%
    14:00 -1°C° 0 mm 2 mps 763 mmHg 24%
    15:00 -2°C° 0 mm 2 mps 763 mmHg 25%
    16:00 -2°C° 0 mm 2 mps 762 mmHg 26%
    17:00 -2°C° 0 mm 2 mps 762 mmHg 26%
    18:00 -3°C° 0 mm 2 mps 762 mmHg 26%
    19:00 -3°C° 0 mm 2 mps 761 mmHg 27%
    20:00 -4°C° 0 mm 2 mps 761 mmHg 27%
    21:00 -4°C° 0 mm 2 mps 761 mmHg 27%
    22:00 -4°C° 0 mm 2 mps 760 mmHg 27%
    23:00 -4°C° 0 mm 2 mps 760 mmHg 26%

    18 November, Sunday

    Time Temperature Precipitation Wind Pressure Humidity
    00:00 -4°C° 0 mm 2 mps 760 mmHg 26%
    01:00 -4°C° 0 mm 2 mps 759 mmHg 26%
    02:00 -4°C° 0 mm 2 mps 759 mmHg 26%
    03:00 -4°C° 0 mm 2 mps 759 mmHg 26%
    04:00 -5°C° 0 mm 3 mps 758 mmHg 26%
    05:00 -6°C° 0 mm 3 mps 758 mmHg 26%
    06:00 -5°C° 0 mm 2 mps 758 mmHg 25%
    07:00 -5°C° 0 mm 2 mps 758 mmHg 25%
    08:00 -4°C° 0 mm 2 mps 758 mmHg 24%
    09:00 -3°C° 0 mm 2 mps 758 mmHg 23%
    10:00 -3°C° 0 mm 2 mps 758 mmHg 21%
    11:00 -2°C° 0 mm 2 mps 757 mmHg 21%
    12:00 -1°C° 0 mm 2 mps 757 mmHg 20%
    13:00 0°C° 0 mm 3 mps 757 mmHg 19%
    14:00 +1°C° 0 mm 2 mps 757 mmHg 21%
    15:00 -1°C° 0 mm 2 mps 757 mmHg 23%
    16:00 -2°C° 0 mm 2 mps 757 mmHg 26%
    17:00 -2°C° 0 mm 2 mps 757 mmHg 26%
    18:00 -2°C° 0 mm 2 mps 757 mmHg 27%
    19:00 -3°C° 0 mm 2 mps 757 mmHg 27%
    20:00 -3°C° 0 mm 2 mps 757 mmHg 27%
    21:00 -3°C° 0 mm 2 mps 757 mmHg 27%
    22:00 -3°C° 0 mm 2 mps 757 mmHg 27%
    23:00 -3°C° 0 mm 2 mps 757 mmHg 28%

    19 November, Monday

    Time Temperature Precipitation Wind Pressure Humidity
    00:00 -3°C° 0 mm 2 mps 757 mmHg 28%
    01:00 -3°C° 0 mm 2 mps 757 mmHg 29%
    02:00 -3°C° 0 mm 2 mps 757 mmHg 30%
    03:00 -3°C° 0 mm 2 mps 757 mmHg 31%
    04:00 -4°C° 0 mm 3 mps 757 mmHg 33%
    05:00 -4°C° 0 mm 3 mps 757 mmHg 35%
    06:00 -4°C° 0 mm 3 mps 757 mmHg 37%
    07:00 -4°C° 0 mm 3 mps 758 mmHg 39%
    08:00 -2°C° 0 mm 3 mps 758 mmHg 40%
    09:00 -2°C° 0 mm 3 mps 758 mmHg 41%
    10:00 -1°C° 0 mm 3 mps 758 mmHg 42%
    11:00 -1°C° 0 mm 3 mps 758 mmHg 43%
    12:00 0°C° 0 mm 3 mps 758 mmHg 44%
    13:00 0°C° 0 mm 3 mps 758 mmHg 45%
    14:00 0°C° 0 mm 3 mps 758 mmHg 48%
    15:00 0°C° 0 mm 3 mps 758 mmHg 51%
    16:00 -1°C° 0 mm 2 mps 759 mmHg 54%
    17:00 -1°C° 0 mm 2 mps 759 mmHg 57%
    18:00 -1°C° 0 mm 2 mps 759 mmHg 59%
    19:00 -1°C° 0 mm 2 mps 759 mmHg 62%
    20:00 -2°C° 0.1 mm 2 mps 759 mmHg 68%
    21:00 -2°C° 0.1 mm 2 mps 759 mmHg 73%
    22:00 -2°C° 0.1 mm 2 mps 759 mmHg 79%
    23:00 -2°C° 0.1 mm 2 mps 759 mmHg 80%
    Show more